Location: Beadle
(51.4667°N, 109.0000°W)
Time: 09:38:46
(UTC+00:00)

deb Explorer IX - Pass Details

Date: 29 May 2022
Orbit: 535 x 1068 km, 38.8° (Epoch: 04 July)

Event Time Altitude Azimuth Distance (km) Brightness Sun altitude
Rises 17:18:49 0° 218° (SW) 3,840 ? 52.9°
Reaches altitude 10° 17:22:25 10° 202° (SSW) 2,860 ? 53.3°
Maximum altitude 17:27:05 19° 160° (SSE) 2,193 ? 53.8°
Drops below altitude 10° 17:31:31 10° 118° (ESE) 2,698 ? 54.3°
Sets 17:34:47 0° 101° (E) 3,554 ? 54.6°
